| time (UTC) | temp C | wind direction | speed KPH | gust KPH | rain 1hr cm | rain 24hr cm | rain mn cm | humidity % | barometer mb |
| 20260504081503 | 4 | 296 | 3.2 | 9.7 | 0.00 | 0.03 | 0.03 | 89 | 1013.2 |
| 20260504044536 | 5 | 222 | 0.0 | 11.3 | 0.00 | 0.00 | 0.00 | 64 | 1013.7 |
| 20260504043035 | 5 | 312 | 1.6 | 14.5 | 0.00 | 0.00 | 0.00 | 63 | 1013.9 |
| 20260504041531 | 5 | 205 | 3.2 | 17.7 | 0.00 | 0.00 | 0.00 | 60 | 1014.0 |
| 20260504040028 | 5 | 200 | 3.2 | 14.5 | 0.00 | 0.00 | 0.00 | 59 | 1014.1 |
| 20260504034527 | 4 | 187 | 1.6 | 9.7 | 0.00 | 0.00 | 0.00 | 62 | 1013.9 |
| 20260504033027 | 3 | 233 | 0.0 | 4.8 | 0.00 | 0.00 | 0.00 | 67 | 1014.0 |
| 20260504031526 | 2 | 229 | 0.0 | 9.7 | 0.00 | 0.00 | 0.00 | 67 | 1014.0 |
| 20260504030025 | 2 | 268 | 0.0 | 1.6 | 0.00 | 0.00 | 0.00 | 68 | 1014.1 |
| 20260504024524 | 2 | 276 | 0.0 | 6.4 | 0.00 | 0.00 | 0.00 | 68 | 1014.1 |
| 20260504023024 | 2 | 160 | 0.0 | 3.2 | 0.00 | 0.00 | 0.00 | 69 | 1014.2 |
| 20260504021523 | 2 | 281 | 0.0 | 6.4 | 0.00 | 0.00 | 0.00 | 69 | 1014.3 |
| 20260504020022 | 2 | 285 | 0.0 | 8.0 | 0.00 | 0.00 | 0.00 | 71 | 1014.3 |
| 20260504014523 | 2 | 274 | 0.0 | 3.2 | 0.00 | 0.00 | 0.00 | 74 | 1014.5 |
| 20260504013032 | 2 | 217 | 0.0 | 3.2 | 0.00 | 0.00 | 0.00 | 76 | 1014.4 |
| 20260504011521 | 2 | 252 | 0.0 | 3.2 | 0.00 | 0.00 | 0.00 | 76 | 1014.2 |
| 20260504010020 | 2 | 238 | 0.0 | 1.6 | 0.00 | 0.00 | 0.00 | 76 | 1014.1 |
| 20260504004521 | 2 | 233 | 0.0 | 1.6 | 0.00 | 0.03 | 0.00 | 76 | 1014.0 |
| 20260504003025 | 2 | 297 | 0.0 | 0.0 | 0.00 | 0.03 | 0.00 | 77 | 1013.9 |
| 20260504001520 | 3 | 193 | 0.0 | 0.0 | 0.00 | 0.03 | 0.00 | 75 | 1014.0 |
| 20260504000045 | 3 | 193 | 0.0 | 0.0 | 0.00 | 0.03 | 0.00 | 71 | 1013.7 |
| 20260503234517 | 5 | 193 | 0.0 | 1.6 | 0.00 | 0.05 | 0.00 | 71 | 1013.7 |
| 20260503233017 | 5 | 184 | 0.0 | 3.2 | 0.00 | 0.05 | 0.00 | 66 | 1013.6 |
| 20260503231516 | 6 | 328 | 0.0 | 3.2 | 0.00 | 0.05 | 0.00 | 58 | 1013.4 |
| 20260503230015 | 6 | 106 | 0.0 | 1.6 | 0.00 | 0.05 | 0.00 | 61 | 1013.4 |
| 20260503224515 | 6 | 129 | 1.6 | 4.8 | 0.00 | 0.08 | 0.00 | 57 | 1013.5 |
| 20260503223016 | 6 | 236 | 1.6 | 6.4 | 0.00 | 0.08 | 0.00 | 56 | 1013.4 |
| 20260503221514 | 6 | 274 | 1.6 | 8.0 | 0.00 | 0.08 | 0.00 | 56 | 1013.3 |
| 20260503220013 | 6 | 105 | 1.6 | 6.4 | 0.00 | 0.08 | 0.00 | 57 | 1013.3 |
| 20260503214512 | 6 | 130 | 1.6 | 8.0 | 0.00 | 0.08 | 0.00 | 58 | 1013.2 |
| 20260503213011 | 6 | 62 | 3.2 | 11.3 | 0.00 | 0.08 | 0.00 | 58 | 1013.2 |
| 20260503211514 | 6 | 85 | 3.2 | 8.0 | 0.00 | 0.08 | 0.00 | 58 | 1013.2 |
| 20260503210109 | 6 | 100 | 3.2 | 11.3 | 0.00 | 0.08 | 0.00 | 59 | 1013.2 |
| 20260503204508 | 6 | 19 | 3.2 | 9.7 | 0.00 | 0.08 | 0.00 | 60 | 1013.2 |
| 20260503203018 | 6 | 181 | 1.6 | 17.7 | 0.00 | 0.08 | 0.00 | 61 | 1013.0 |
| 20260503201506 | 6 | 130 | 1.6 | 16.1 | 0.00 | 0.08 | 0.00 | 61 | 1013.2 |
| 20260503200004 | 6 | 94 | 3.2 | 12.9 | 0.00 | 0.08 | 0.00 | 60 | 1013.4 |
| 20260503194503 | 6 | 98 | 6.4 | 14.5 | 0.00 | 0.08 | 0.00 | 60 | 1013.4 |
| 20260503193100 | 6 | 61 | 4.8 | 14.5 | 0.00 | 0.08 | 0.00 | 62 | 1013.4 |
| 20260503191604 | 5 | 77 | 4.8 | 12.9 | 0.00 | 0.08 | 0.00 | 63 | 1013.8 |
| 20260503190056 | 5 | 84 | 3.2 | 8.0 | 0.00 | 0.08 | 0.00 | 63 | 1013.9 |
| 20260503184555 | 5 | 36 | 8.0 | 16.1 | 0.00 | 0.08 | 0.00 | 64 | 1014.0 |
| 20260503183054 | 5 | 91 | 3.2 | 11.3 | 0.00 | 0.08 | 0.00 | 62 | 1014.0 |
| 20260503181603 | 5 | 134 | 4.8 | 17.7 | 0.00 | 0.08 | 0.00 | 61 | 1013.9 |
| 20260503180053 | 6 | 114 | 3.2 | 12.9 | 0.00 | 0.08 | 0.00 | 63 | 1013.9 |
| 20260503174553 | 5 | 151 | 4.8 | 14.5 | 0.00 | 0.08 | 0.00 | 63 | 1014.0 |
| 20260503173057 | 5 | 116 | 1.6 | 11.3 | 0.00 | 0.08 | 0.00 | 65 | 1014.2 |
| 20260503171550 | 5 | 115 | 3.2 | 9.7 | 0.00 | 0.08 | 0.00 | 62 | 1014.0 |